Weather History for Dublin, Ireland

Change the Weather History Date:

Saturday, May 4, 2013

  Actual Average Record
Temperature  
Mean Temperature 52 °F -  
Max Temperature 59 °F 59 °F 66 °F (2008)
Min Temperature 44 °F 45 °F 35 °F (2001)
Degree Days  
Heating Degree Days 14    
Growing Degree Days 2 (Base 50)    
Moisture  
Dew Point 42 °F    
Average Humidity 72    
Maximum Humidity 93    
Minimum Humidity 39    
Precipitation  
Precipitation 0.00 in 0.07 in - ()
Sea Level Pressure  
Sea Level Pressure 29.90 in    
Wind  
Wind Speed 16 mph ()    
Max Wind Speed 25 mph    
Max Gust Speed 37 mph    
Visibility 6.6 miles    
Events Rain    
Averages and records for this station are not official NWS values.
T = Trace of Precipitation, MM = Missing Value Source: Averaged Metar Reports

Daily Weather History Graph

Daily Weather History Graph

Search for Another Location

Airport:

Trip Planner

Search our weather history database for the weather conditions in past years. The results will help you decide how hot, cold, wet, or windy it might be!

Date:

Astronomy

May. 04, 2013 Rise Set
Actual Time 5:44 AM IST 9:00 PM IST
Civil Twilight 5:03 AM IST 9:42 PM IST
Nautical Twilight 4:07 AM IST 10:38 PM IST
Astronomical Twilight 2:51 AM IST 11:57 PM IST
Moon 3:23 AM IST (5/4) 2:59 PM IST (5/4)
Length of Visible Light 16h 38m
Length of Day
15h 15m
Waning Crescent, 29% of the Moon is Illuminated
May 4
Waning Crescent
May 10
New
May 18
First Quarter
May 25
Full
May 31
Last Quarter

Hourly Weather History & Observations

Time (IST) Temp. Windchill Dew Point Humidity Pressure Visibility Wind Dir Wind Speed Gust Speed Precip Events Conditions
12:00 AM 48.2 °F - 46.4 °F 93% 29.86 in 6.2 mi SW 12.7 mph - N/A Rain Light Rain
12:30 AM 48.2 °F - 46.4 °F 93% 29.86 in 6.2 mi SW 15.0 mph - N/A Rain Light Rain
1:00 AM 47 °F - 44 °F 85% 29.86 in 11 mi WSW 15.7 mph - - Rain Light Rain
1:00 AM 46.4 °F 40.1 °F 44.6 °F 93% 29.83 in 6.2 mi WSW 15.0 mph - N/A Rain Light Rain
1:30 AM 46.4 °F 40.1 °F 44.6 °F 93% 29.83 in 6.2 mi SW 15.0 mph - N/A Rain Light Rain
2:00 AM 46.4 °F 40.1 °F 42.8 °F 87% 29.83 in 6.2 mi SW 15.0 mph - N/A   Mostly Cloudy
2:30 AM 46.4 °F 40.7 °F 42.8 °F 87% 29.80 in 6.2 mi WSW 12.7 mph - N/A   Mostly Cloudy
3:00 AM 44.6 °F 38.1 °F 42.8 °F 93% 29.80 in 6.2 mi SW 13.8 mph - N/A   Mostly Cloudy
3:30 AM 44.6 °F 37.8 °F 42.8 °F 93% 29.80 in 6.2 mi SW 15.0 mph - N/A   Mostly Cloudy
4:00 AM 44.6 °F 38.4 °F 42.8 °F 93% 29.80 in 6.2 mi SW 12.7 mph - N/A   Mostly Cloudy
4:30 AM 44.6 °F 38.4 °F 42.8 °F 93% 29.80 in 6.2 mi WSW 12.7 mph - N/A   Mostly Cloudy
5:00 AM 44.6 °F 37.8 °F 42.8 °F 93% 29.83 in 6.2 mi WSW 15.0 mph - N/A   Mostly Cloudy
5:30 AM 44.6 °F 37.4 °F 42.8 °F 93% 29.80 in 6.2 mi WSW 16.1 mph - N/A   Mostly Cloudy
6:00 AM 46.4 °F 40.1 °F 42.8 °F 87% 29.83 in 6.2 mi WSW 15.0 mph - N/A   Mostly Cloudy
6:30 AM 46.4 °F 39.8 °F 42.8 °F 87% 29.83 in 6.2 mi WSW 16.1 mph - N/A   Mostly Cloudy
7:00 AM 46 °F - 44 °F 89% 29.86 in 19 mi WSW 15.7 mph - -   Partly Cloudy
7:00 AM 46.4 °F 40.4 °F 44.6 °F 93% 29.83 in 6.2 mi WSW 13.8 mph - N/A   Mostly Cloudy
7:30 AM 46.4 °F 39.8 °F 42.8 °F 87% 29.86 in 6.2 mi WSW 16.1 mph - N/A   Mostly Cloudy
8:00 AM 46.4 °F 39.2 °F 42.8 °F 87% 29.86 in 6.2 mi West 18.4 mph - N/A Rain Light Rain
8:30 AM 46.4 °F 39.5 °F 42.8 °F 87% 29.89 in 6.2 mi West 17.3 mph - N/A   Mostly Cloudy
9:00 AM 46.4 °F 39.0 °F 39.2 °F 76% 29.89 in 6.2 mi West 19.6 mph - N/A   Mostly Cloudy
9:30 AM 48.2 °F - 39.2 °F 71% 29.89 in 6.2 mi West 20.7 mph - N/A   Mostly Cloudy
10:00 AM 50.0 °F - 39.2 °F 66% 29.92 in 6.2 mi West 19.6 mph - N/A   Mostly Cloudy
10:30 AM 50.0 °F - 41.0 °F 71% 29.92 in 6.2 mi West 23.0 mph - N/A   Mostly Cloudy
11:00 AM 50.0 °F - 39.2 °F 66% 29.92 in 6.2 mi WSW 20.7 mph - N/A   Mostly Cloudy
11:30 AM 50.0 °F - 39.2 °F 66% 29.92 in 6.2 mi WSW 21.9 mph - N/A   Mostly Cloudy
12:00 PM 51.8 °F - 39.2 °F 62% 29.92 in 6.2 mi West 25.3 mph - N/A   Mostly Cloudy
12:30 PM 51.8 °F - 37.4 °F 58% 29.92 in 6.2 mi West 23.0 mph - N/A   Mostly Cloudy
1:00 PM 52 °F - 38 °F 48% 29.93 in 31 mi WSW 20.1 mph - -   Partly Cloudy
1:00 PM 51.8 °F - 37.4 °F 58% 29.92 in 6.2 mi WSW 20.7 mph - N/A   Mostly Cloudy
1:30 PM 51.8 °F - 39.2 °F 62% 29.92 in 6.2 mi WSW 23.0 mph - N/A   Mostly Cloudy
2:00 PM 53.6 °F - 39.2 °F 58% 29.92 in 6.2 mi WSW 21.9 mph - N/A   Mostly Cloudy
2:30 PM 55.4 °F - 39.2 °F 54% 29.92 in 6.2 mi WSW 24.2 mph - N/A   Mostly Cloudy
3:00 PM 55.4 °F - 39.2 °F 54% 29.92 in 6.2 mi WSW 24.2 mph 36.8 mph N/A   Mostly Cloudy
3:30 PM 59.0 °F - 41.0 °F 51% 29.92 in 6.2 mi WSW 21.9 mph - N/A   Scattered Clouds
4:00 PM 57.2 °F - 41.0 °F 55% 29.92 in 6.2 mi WSW 19.6 mph 31.1 mph N/A   Scattered Clouds
4:30 PM 59.0 °F - 39.2 °F 48% 29.92 in 6.2 mi WSW 24.2 mph - N/A   Partly Cloudy
5:00 PM 59.0 °F - 39.2 °F 48% 29.92 in 6.2 mi West 25.3 mph - N/A   Partly Cloudy
5:30 PM 59.0 °F - 39.2 °F 48% 29.95 in 6.2 mi WSW 23.0 mph - N/A   Partly Cloudy
6:00 PM 59.0 °F - 37.4 °F 45% 29.95 in 6.2 mi WSW 17.3 mph - N/A   Partly Cloudy
6:30 PM 57.2 °F - 37.4 °F 48% 29.95 in 6.2 mi WSW 25.3 mph - N/A   Partly Cloudy
7:00 PM 57 °F - 39 °F 39% 29.96 in 31 mi WSW 20.1 mph - -   Scattered Clouds
7:00 PM 57.2 °F - 39.2 °F 51% 29.95 in - WSW 21.9 mph - N/A   Clear
7:30 PM 57.2 °F - 39.2 °F 51% 29.95 in - West 20.7 mph - N/A   Clear
8:00 PM 55.4 °F - 41.0 °F 58% 29.95 in - WSW 18.4 mph - N/A   Clear
8:30 PM 55.4 °F - 41.0 °F 58% 29.95 in - WSW 16.1 mph - N/A   Clear
9:00 PM 55.4 °F - 42.8 °F 63% 29.95 in 6.2 mi SW 11.5 mph - N/A   Partly Cloudy
9:30 PM 55.4 °F - 44.6 °F 67% 29.95 in 6.2 mi SW 12.7 mph - N/A   Scattered Clouds
10:00 PM 55.4 °F - 48.2 °F 77% 29.98 in 6.2 mi WSW 12.7 mph - N/A   Mostly Cloudy
10:30 PM 53.6 °F - 50.0 °F 88% 29.98 in 6.2 mi SW 12.7 mph - N/A   Mostly Cloudy
11:00 PM 53.6 °F - 50.0 °F 88% 29.98 in 6.2 mi SW 12.7 mph - N/A Rain Light Rain
11:30 PM 53.6 °F - 50.0 °F 88% 29.98 in 6.2 mi WSW 15.0 mph - N/A   Scattered Clouds